| time (UTC) | temp F | wind direction | speed knots | gust knots | rain 1hr in | rain 24hr in | rain mn in | humidity % | barometer mb |
| 20260504214747 | 69 | 341 | 2.6 | 2.6 | 0.00 | 0.00 | 0.00 | 62 | 1010.2 |
| 20260504214244 | 69 | 341 | 2.6 | 2.6 | 0.00 | 0.00 | 0.00 | 62 | 1010.4 |
| 20260504213741 | 69 | 290 | 3.5 | 5.2 | 0.00 | 0.00 | 0.00 | 60 | 1010.3 |
| 20260504213237 | 69 | 290 | 3.5 | 5.2 | 0.00 | 0.00 | 0.00 | 60 | 1010.6 |
| 20260504212734 | 69 | 290 | 3.5 | 5.2 | 0.00 | 0.00 | 0.00 | 60 | 1010.3 |
| 20260504212231 | 68 | 324 | 3.5 | 4.3 | 0.00 | 0.00 | 0.00 | 60 | 1010.5 |
| 20260504211729 | 68 | 315 | 1.7 | 3.5 | 0.00 | 0.00 | 0.00 | 61 | 1010.5 |
| 20260504211224 | 68 | 320 | 4.3 | 4.3 | 0.00 | 0.00 | 0.00 | 61 | 1010.3 |
| 20260504210722 | 69 | 295 | 1.7 | 4.3 | 0.00 | 0.00 | 0.00 | 61 | 1010.6 |
| 20260504210219 | 69 | 295 | 1.7 | 4.3 | 0.00 | 0.00 | 0.00 | 61 | 1010.6 |
| 20260504205716 | 69 | 295 | 1.7 | 4.3 | 0.00 | 0.00 | 0.00 | 61 | 1010.4 |
| 20260504205214 | 69 | 295 | 1.7 | 4.3 | 0.00 | 0.00 | 0.00 | 61 | 1010.2 |
| 20260504204712 | 69 | 295 | 1.7 | 4.3 | 0.00 | 0.00 | 0.00 | 61 | 1010.4 |
| 20260504204210 | 69 | 295 | 1.7 | 4.3 | 0.00 | 0.00 | 0.00 | 61 | 1010.3 |
| 20260504203709 | 69 | 295 | 1.7 | 4.3 | 0.00 | 0.00 | 0.00 | 61 | 1010.4 |
| 20260504203206 | 69 | 295 | 1.7 | 4.3 | 0.00 | 0.00 | 0.00 | 61 | 1010.3 |
| 20260504202706 | 69 | 295 | 1.7 | 4.3 | 0.00 | 0.00 | 0.00 | 61 | 1010.4 |
| 20260504202203 | 69 | 295 | 1.7 | 4.3 | 0.00 | 0.00 | 0.00 | 61 | 1010.3 |
| 20260504201700 | 69 | 295 | 1.7 | 4.3 | 0.00 | 0.00 | 0.00 | 61 | 1010.2 |
| 20260504201158 | 70 | 291 | 2.6 | 5.2 | 0.00 | 0.00 | 0.00 | 58 | 1010.2 |
| 20260504200655 | 70 | 291 | 2.6 | 5.2 | 0.00 | 0.00 | 0.00 | 58 | 1010.4 |
| 20260504200151 | 70 | 322 | 2.6 | 4.3 | 0.00 | 0.00 | 0.00 | 60 | 1010.4 |
| 20260504195647 | 69 | 270 | 3.5 | 3.5 | 0.00 | 0.00 | 0.00 | 60 | 1010.3 |
| 20260504195143 | 69 | 270 | 3.5 | 3.5 | 0.00 | 0.00 | 0.00 | 60 | 1010.4 |
| 20260504194640 | 69 | 270 | 3.5 | 3.5 | 0.00 | 0.00 | 0.00 | 60 | 1010.4 |
| 20260504194137 | 69 | 270 | 3.5 | 3.5 | 0.00 | 0.00 | 0.00 | 60 | 1010.3 |
| 20260504193633 | 69 | 270 | 3.5 | 3.5 | 0.00 | 0.00 | 0.00 | 60 | 1010.3 |
| 20260504193131 | 69 | 270 | 3.5 | 3.5 | 0.00 | 0.00 | 0.00 | 60 | 1010.3 |
| 20260504192629 | 69 | 270 | 3.5 | 3.5 | 0.00 | 0.00 | 0.00 | 60 | 1010.2 |
| 20260504192127 | 69 | 270 | 3.5 | 3.5 | 0.00 | 0.00 | 0.00 | 60 | 1010.4 |
| 20260504191625 | 72 | 315 | 4.3 | 4.3 | 0.00 | 0.00 | 0.00 | 56 | 1010.4 |
| 20260504191121 | 72 | 315 | 4.3 | 4.3 | 0.00 | 0.00 | 0.00 | 56 | 1010.4 |
| 20260504190617 | 72 | 311 | 3.5 | 5.2 | 0.00 | 0.00 | 0.00 | 57 | 1010.3 |
| 20260504190114 | 73 | 314 | 3.5 | 4.3 | 0.00 | 0.00 | 0.00 | 56 | 1010.2 |
| 20260504185610 | 73 | 307 | 1.7 | 3.5 | 0.00 | 0.00 | 0.00 | 53 | 1010.1 |
| 20260504185107 | 73 | 307 | 1.7 | 3.5 | 0.00 | 0.00 | 0.00 | 53 | 1010.2 |
| 20260504184603 | 73 | 289 | 0.0 | 3.5 | 0.00 | 0.00 | 0.00 | 54 | 1010.1 |
| 20260504184058 | 73 | 290 | 4.3 | 4.3 | 0.00 | 0.00 | 0.00 | 53 | 1010.3 |
| 20260504183555 | 73 | 281 | 1.7 | 2.6 | 0.00 | 0.00 | 0.00 | 55 | 1010.4 |
| 20260504183053 | 73 | 296 | 2.6 | 3.5 | 0.00 | 0.00 | 0.00 | 55 | 1010.2 |
| 20260504182550 | 73 | 13 | 3.5 | 5.2 | 0.00 | 0.00 | 0.00 | 52 | 1010.3 |
| 20260504182047 | 71 | 357 | 1.7 | 5.2 | 0.00 | 0.00 | 0.00 | 54 | 1010.4 |
| 20260504181544 | 71 | 2 | 1.7 | 5.2 | 0.00 | 0.00 | 0.00 | 52 | 1010.6 |
| 20260504181042 | 71 | 354 | 2.6 | 3.5 | 0.00 | 0.00 | 0.00 | 58 | 1010.4 |
| 20260504180541 | 71 | 25 | 1.7 | 3.5 | 0.00 | 0.00 | 0.00 | 56 | 1010.3 |
| 20260504180040 | 71 | 344 | 4.3 | 5.2 | 0.00 | 0.00 | 0.00 | 51 | 1010.5 |
| 20260504175536 | 71 | 315 | 3.5 | 6.1 | 0.00 | 0.00 | 0.00 | 49 | 1010.3 |
| 20260504175033 | 72 | 344 | 5.2 | 7.0 | 0.00 | 0.00 | 0.00 | 49 | 1010.6 |
| 20260504174531 | 71 | 348 | 1.7 | 2.6 | 0.00 | 0.00 | 0.00 | 47 | 1010.4 |
| 20260504174028 | 71 | 340 | 2.6 | 5.2 | 0.00 | 0.00 | 0.00 | 52 | 1010.4 |
| 20260504173525 | 70 | 28 | 0.9 | 1.7 | 0.00 | 0.00 | 0.00 | 57 | 1010.4 |
| 20260504173022 | 70 | 357 | 1.7 | 2.6 | 0.00 | 0.00 | 0.00 | 54 | 1010.5 |
| 20260504172518 | 70 | 3 | 1.7 | 2.6 | 0.00 | 0.00 | 0.00 | 53 | 1010.6 |
| 20260504172015 | 69 | 356 | 0.9 | 1.7 | 0.00 | 0.00 | 0.00 | 57 | 1010.6 |
| 20260504171512 | 69 | 347 | 0.9 | 2.6 | 0.00 | 0.00 | 0.00 | 55 | 1010.6 |
| 20260504171009 | 69 | 359 | 1.7 | 2.6 | 0.00 | 0.00 | 0.00 | 56 | 1010.7 |
| 20260504170504 | 69 | 342 | 4.3 | 5.2 | 0.00 | 0.00 | 0.00 | 53 | 1010.6 |
| 20260504160425 | 71 | 292 | 1.7 | 1.7 | 0.00 | 0.00 | 0.00 | 52 | 1010.4 |
| 20260504150848 | 68 | 209 | 0.0 | 0.0 | 0.00 | 0.00 | 0.00 | 64 | 1010.1 |
| 20260504150345 | 54 | 243 | 2.6 | 3.5 | 0.00 | 0.00 | 0.00 | 76 | 1009.9 |
| 20260504141315 | 54 | 243 | 2.6 | 3.5 | 0.00 | 0.00 | 0.00 | 76 | 1009.5 |
| 20260504140812 | 54 | 243 | 2.6 | 3.5 | 0.00 | 0.00 | 0.00 | 76 | 1009.6 |
| 20260504140307 | 53 | 260 | 1.7 | 3.5 | 0.00 | 0.00 | 0.00 | 75 | 1009.6 |
| 20260504130736 | 49 | 221 | 1.7 | 2.6 | 0.00 | 0.00 | 0.00 | 80 | 1009.3 |
| 20260504130232 | 49 | 221 | 1.7 | 2.6 | 0.00 | 0.00 | 0.00 | 80 | 1009.2 |
| 20260504120156 | 50 | 211 | 2.6 | 2.6 | 0.00 | 0.00 | 0.00 | 78 | 1009.2 |
| 20260504110623 | 50 | 225 | 1.7 | 1.7 | 0.00 | 0.00 | 0.00 | 77 | 1009.2 |
| 20260504110119 | 50 | 225 | 1.7 | 1.7 | 0.00 | 0.00 | 0.00 | 77 | 1009.1 |
| 20260504100545 | 53 | 224 | 0.0 | 0.9 | 0.00 | 0.00 | 0.00 | 71 | 1009.0 |
| 20260504081938 | 62 | 205 | 2.6 | 3.5 | 0.00 | 0.00 | 0.00 | 48 | 1008.7 |
| 20260504081436 | 62 | 239 | 1.7 | 2.6 | 0.00 | 0.00 | 0.00 | 49 | 1008.8 |
| 20260504080931 | 62 | 222 | 1.7 | 3.5 | 0.00 | 0.00 | 0.00 | 48 | 1008.9 |
| 20260504080428 | 63 | 247 | 1.7 | 2.6 | 0.00 | 0.00 | 0.00 | 48 | 1008.8 |
| 20260504070356 | 53 | 251 | 1.7 | 3.5 | 0.00 | 0.00 | 0.00 | 75 | 1009.2 |
| 20260504050743 | 59 | 210 | 1.7 | 2.6 | 0.00 | 0.00 | 0.00 | 68 | 1009.6 |
| 20260504050241 | 59 | 201 | 2.6 | 2.6 | 0.00 | 0.00 | 0.00 | 69 | 1009.5 |
| 20260504045739 | 59 | 215 | 1.7 | 2.6 | 0.00 | 0.00 | 0.00 | 69 | 1009.2 |
| 20260504045238 | 59 | 192 | 2.6 | 2.6 | 0.00 | 0.00 | 0.00 | 70 | 1009.4 |
| 20260504044737 | 58 | 206 | 1.7 | 2.6 | 0.00 | 0.00 | 0.00 | 69 | 1009.4 |
| 20260504044234 | 58 | 221 | 1.7 | 1.7 | 0.00 | 0.00 | 0.00 | 70 | 1009.3 |
| 20260504043731 | 60 | 201 | 0.9 | 2.6 | 0.00 | 0.00 | 0.00 | 66 | 1009.3 |
| 20260504043228 | 60 | 326 | 0.0 | 0.0 | 0.00 | 0.00 | 0.00 | 64 | 1009.2 |
| 20260504042726 | 61 | 326 | 0.9 | 2.6 | 0.00 | 0.00 | 0.00 | 65 | 1009.4 |
| 20260504042222 | 62 | 226 | 0.9 | 0.9 | 0.00 | 0.00 | 0.00 | 58 | 1009.3 |
| 20260504041718 | 62 | 227 | 0.9 | 1.7 | 0.00 | 0.00 | 0.00 | 61 | 1009.3 |
| 20260504041214 | 62 | 202 | 0.9 | 1.7 | 0.00 | 0.00 | 0.00 | 63 | 1009.0 |
| 20260504040710 | 61 | 214 | 1.7 | 2.6 | 0.00 | 0.00 | 0.00 | 65 | 1009.4 |
| 20260504040208 | 60 | 202 | 1.7 | 2.6 | 0.00 | 0.00 | 0.00 | 67 | 1009.3 |
| 20260504035704 | 61 | 213 | 1.7 | 2.6 | 0.00 | 0.00 | 0.00 | 67 | 1009.1 |
| 20260504035201 | 62 | 208 | 2.6 | 2.6 | 0.00 | 0.00 | 0.00 | 66 | 1009.0 |
| 20260504034659 | 62 | 217 | 1.7 | 2.6 | 0.00 | 0.00 | 0.00 | 68 | 1009.2 |
| 20260504034155 | 62 | 217 | 1.7 | 3.5 | 0.00 | 0.00 | 0.00 | 67 | 1009.2 |
| 20260504033653 | 63 | 223 | 2.6 | 2.6 | 0.00 | 0.00 | 0.00 | 66 | 1009.0 |
| 20260504033150 | 64 | 203 | 0.9 | 1.7 | 0.00 | 0.00 | 0.00 | 62 | 1009.0 |
| 20260504032647 | 64 | 201 | 1.7 | 1.7 | 0.00 | 0.00 | 0.00 | 60 | 1009.0 |
| 20260504032144 | 65 | 211 | 0.9 | 1.7 | 0.00 | 0.00 | 0.00 | 61 | 1008.9 |
| 20260504031641 | 66 | 206 | 0.9 | 1.7 | 0.00 | 0.00 | 0.00 | 61 | 1008.9 |
| 20260504031137 | 67 | 209 | 0.9 | 1.7 | 0.00 | 0.00 | 0.00 | 60 | 1009.1 |
| 20260504030634 | 68 | 209 | 0.9 | 1.7 | 0.00 | 0.00 | 0.00 | 58 | 1009.1 |
| 20260504030131 | 68 | 221 | 0.0 | 1.7 | 0.00 | 0.00 | 0.00 | 57 | 1008.9 |
| 20260504025628 | 69 | 221 | 0.9 | 1.7 | 0.00 | 0.00 | 0.00 | 55 | 1009.2 |
| 20260504025125 | 70 | 210 | 1.7 | 1.7 | 0.00 | 0.00 | 0.00 | 56 | 1009.2 |
| 20260504024622 | 71 | 282 | 0.0 | 0.0 | 0.00 | 0.00 | 0.00 | 49 | 1009.4 |
| 20260504024118 | 71 | 282 | 0.9 | 1.7 | 0.00 | 0.00 | 0.00 | 49 | 1009.2 |
| 20260504023615 | 71 | 322 | 0.0 | 0.0 | 0.00 | 0.00 | 0.00 | 46 | 1009.3 |
| 20260504023111 | 73 | 322 | 0.0 | 0.0 | 0.00 | 0.00 | 0.00 | 45 | 1009.2 |
| 20260504022608 | 72 | 322 | 0.0 | 1.7 | 0.00 | 0.00 | 0.00 | 41 | 1009.4 |
| 20260504022103 | 73 | 326 | 0.0 | 0.0 | 0.00 | 0.00 | 0.00 | 42 | 1009.4 |
| 20260504021602 | 74 | 326 | 0.0 | 0.0 | 0.00 | 0.00 | 0.00 | 38 | 1009.4 |
| 20260504021058 | 74 | 326 | 0.0 | 0.9 | 0.00 | 0.00 | 0.00 | 40 | 1009.5 |
| 20260504020555 | 74 | 321 | 0.9 | 1.7 | 0.00 | 0.00 | 0.00 | 41 | 1009.6 |
| 20260504020051 | 76 | 327 | 2.6 | 3.5 | 0.00 | 0.00 | 0.00 | 42 | 1009.6 |
| 20260504015548 | 78 | 229 | 0.9 | 0.9 | 0.00 | 0.00 | 0.00 | 36 | 1009.5 |
| 20260504015044 | 80 | 229 | 0.9 | 0.9 | 0.00 | 0.00 | 0.00 | 35 | 1009.5 |
| 20260504014540 | 81 | 229 | 0.0 | 0.0 | 0.00 | 0.00 | 0.00 | 36 | 1009.6 |
| 20260504014038 | 80 | 229 | 0.0 | 0.0 | 0.00 | 0.00 | 0.00 | 36 | 1009.7 |
| 20260504013535 | 79 | 219 | 0.0 | 0.9 | 0.00 | 0.00 | 0.00 | 38 | 1009.8 |
| 20260504013032 | 77 | 212 | 0.9 | 1.7 | 0.00 | 0.00 | 0.00 | 34 | 1009.8 |
| 20260504012529 | 77 | 158 | 1.7 | 1.7 | 0.00 | 0.00 | 0.00 | 38 | 1009.8 |
| 20260504012027 | 77 | 160 | 0.9 | 1.7 | 0.00 | 0.00 | 0.00 | 40 | 1010.1 |
| 20260504011523 | 77 | 160 | 0.9 | 1.7 | 0.00 | 0.00 | 0.00 | 33 | 1010.1 |
| 20260504011020 | 77 | 169 | 1.7 | 1.7 | 0.00 | 0.00 | 0.00 | 33 | 1010.3 |
| 20260504010515 | 76 | 343 | 0.0 | 0.0 | 0.00 | 0.00 | 0.00 | 42 | 1010.2 |
| 20260504010011 | 76 | 334 | 0.0 | 1.7 | 0.00 | 0.00 | 0.00 | 39 | 1010.1 |
| 20260504005509 | 76 | 331 | 0.0 | 1.7 | 0.00 | 0.00 | 0.00 | 37 | 1010.4 |
| 20260504005006 | 76 | 339 | 0.9 | 1.7 | 0.00 | 0.00 | 0.00 | 36 | 1010.6 |
| 20260504004504 | 75 | 333 | 1.7 | 1.7 | 0.00 | 0.00 | 0.00 | 37 | 1010.5 |
| 20260504004000 | 75 | 335 | 1.7 | 3.5 | 0.00 | 0.00 | 0.00 | 36 | 1010.5 |
| 20260504003456 | 75 | 312 | 0.9 | 3.5 | 0.00 | 0.00 | 0.00 | 42 | 1010.5 |
| 20260504002953 | 75 | 334 | 1.7 | 2.6 | 0.00 | 0.00 | 0.00 | 38 | 1010.4 |
| 20260504002450 | 75 | 330 | 1.7 | 2.6 | 0.00 | 0.00 | 0.00 | 40 | 1010.6 |
| 20260504001948 | 75 | 342 | 1.7 | 3.5 | 0.00 | 0.00 | 0.00 | 39 | 1010.8 |
| 20260504001445 | 75 | 355 | 2.6 | 3.5 | 0.00 | 0.00 | 0.00 | 39 | 1010.7 |
| 20260504000942 | 75 | 347 | 2.6 | 3.5 | 0.00 | 0.00 | 0.00 | 40 | 1010.8 |
| 20260504000439 | 75 | 334 | 2.6 | 5.2 | 0.00 | 0.00 | 0.00 | 42 | 1010.8 |
| 20260503235936 | 75 | 349 | 3.5 | 5.2 | 0.00 | 0.00 | 0.00 | 42 | 1010.9 |
| 20260503235433 | 75 | 341 | 1.7 | 3.5 | 0.00 | 0.00 | 0.00 | 41 | 1010.9 |
| 20260503234931 | 75 | 330 | 1.7 | 3.5 | 0.00 | 0.00 | 0.00 | 37 | 1010.9 |
| 20260503234428 | 75 | 349 | 3.5 | 5.2 | 0.00 | 0.00 | 0.00 | 40 | 1011.0 |
| 20260503233926 | 74 | 1 | 2.6 | 3.5 | 0.00 | 0.00 | 0.00 | 39 | 1010.9 |
| 20260503233423 | 75 | 337 | 2.6 | 3.5 | 0.00 | 0.00 | 0.00 | 41 | 1011.1 |
| 20260503232919 | 74 | 6 | 3.5 | 3.5 | 0.00 | 0.00 | 0.00 | 45 | 1011.1 |
| 20260503232416 | 74 | 359 | 3.5 | 5.2 | 0.00 | 0.00 | 0.00 | 49 | 1011.1 |
| 20260503231914 | 74 | 13 | 3.5 | 5.2 | 0.00 | 0.00 | 0.00 | 44 | 1011.3 |
| 20260503231411 | 75 | 351 | 3.5 | 3.5 | 0.00 | 0.00 | 0.00 | 44 | 1011.2 |
| 20260503230907 | 75 | 350 | 1.7 | 5.2 | 0.00 | 0.00 | 0.00 | 44 | 1011.3 |
| 20260503230404 | 75 | 339 | 0.9 | 2.6 | 0.00 | 0.00 | 0.00 | 46 | 1011.4 |
| 20260503225902 | 75 | 337 | 3.5 | 3.5 | 0.00 | 0.00 | 0.00 | 43 | 1011.4 |
| 20260503225357 | 74 | 357 | 1.7 | 2.6 | 0.00 | 0.00 | 0.00 | 46 | 1011.5 |
| 20260503224854 | 74 | 356 | 1.7 | 3.5 | 0.00 | 0.00 | 0.00 | 41 | 1011.5 |
| 20260503224351 | 74 | 13 | 1.7 | 2.6 | 0.00 | 0.00 | 0.00 | 52 | 1011.6 |
| 20260503223849 | 74 | 10 | 2.6 | 2.6 | 0.00 | 0.00 | 0.00 | 45 | 1011.8 |
| 20260503223346 | 74 | 11 | 1.7 | 2.6 | 0.00 | 0.00 | 0.00 | 46 | 1011.7 |
| 20260503222841 | 75 | 355 | 3.5 | 3.5 | 0.00 | 0.00 | 0.00 | 46 | 1011.8 |
| 20260503222340 | 74 | 334 | 3.5 | 3.5 | 0.00 | 0.00 | 0.00 | 43 | 1011.9 |
| 20260503221838 | 75 | 333 | 0.9 | 2.6 | 0.00 | 0.00 | 0.00 | 42 | 1012.1 |
| 20260503221337 | 73 | 322 | 0.9 | 2.6 | 0.00 | 0.00 | 0.00 | 51 | 1012.1 |
| 20260503220832 | 73 | 11 | 1.7 | 3.5 | 0.00 | 0.00 | 0.00 | 52 | 1012.1 |
| 20260503220329 | 73 | 347 | 1.7 | 5.2 | 0.00 | 0.00 | 0.00 | 53 | 1012.3 |
| 20260503215826 | 72 | 316 | 1.7 | 5.2 | 0.00 | 0.00 | 0.00 | 46 | 1012.3 |
| 20260503215323 | 72 | 317 | 3.5 | 5.2 | 0.00 | 0.00 | 0.00 | 50 | 1012.4 |